Location: ?????
(30.2541°N, 31.0910°E)
Time: 11:43:50
(UTC+00:00)

Cosmos 1515 Rocket - Pass Details

Date: 27 September 2022
Orbit: 604 x 630 km, 82.5° (Epoch: 27 November)

Event Time Altitude Azimuth Distance (km) Brightness Sun altitude
Rises 02:52:12 0° 199° (SSW) 2,870 6.7 -12.6°
Reaches altitude 10° 02:54:29 10° 205° (SSW) 1,973 5.8 -12.1°
Maximum altitude 02:58:40 45° 278° (W) 854 3.8 -11.2°
Drops below altitude 10° 03:02:55 10° 352° (N) 2,000 6.1 -10.3°
Sets 03:05:15 0° 358° (N) 2,913 7.0 -9.8°
